Location: Armidale
(30.5016°S, 151.6662°E)
Time: 02:06:49
(UTC+10:00)

Hubble Space Telescope - Pass Details

Date: 11 August 2020
Orbit: 536 x 540 km, 28.5° (Epoch: 28 September)

Event Time Altitude Azimuth Distance (km) Brightness Sun altitude
Rises 19:44:37 0° 268° (W) 2,685 5.5 -30.2°
Reaches altitude 10° 19:47:00 10° 277° (W) 1,791 4.3 -30.7°
Enters shadow 19:48:51 22° 294° (WNW) 1,186 3.0 -31.1°
